GSAT0202 (PRN E14)

Last updated on Feb. 21, 2020, 4:44 a.m. UTC

1 40129U 14050B   20051.08357430 -.00000119  00000-0  00000-0 0  9996
2 40129  50.6198   5.1270 1661255  96.3027 282.7873  1.85519610 37648
UTC
Height (km)
Latitude
Longitude
Inclination
Orbital Period
UTC large
Height (km)
Speed (km/s)
/
Latitude / Longitude
Inclination (degrees)
Orbital Period (minutes)
Azimuth
Elevation
Range (km)
Doppler Factor
iOS Compass Heading
iOS Angle

Next 30 passes for location: Hong Kong

Rise time Rise Azimuth (degrees) Set time Set Azimuth (degrees) Duration Max altitude (degrees)

No matching passes for this satellites